Dewpoint
2 2 2 1 2 2 1 2 3 2 2 1 1 2 3 4 5 5 4 4 4 3 2 3 4 4 3 5 6 7 8 8 7 7 6 6 6 4 3 2 1 -1 -2 -1
0 1 2 2 2 2 2 2 3 2 3 1 1 4 4 3 2 2 2 4 4 3 4 4 4 4 4 4 4 4 4 5 5 4 4 4 2 1 -1 -2 -2 -2 -1 -0
1 1 3 4 3 3 3 2 3 5 3 3 4 5 3 1 -1 -1 1 4 4 3 3 3 3 2 3 3 3 2 2 1 1 3 2 0 -2 -3 -2 -1 -1 -1 -1 -2
1 1 4 2 1 2 2 2 3 4 4 3 4 4 1 -1 -3 -3 -3 -1 1 0 -0 0 1 1 2 1 2 2 1 -1 -2 -2 -3 -5 -4 -2 -1 -1 -1 0 0 -0
4 4 2 3 3 3 4 4 4 4 3 4 3 4 2 1 -4 -4 -3 -3 -3 -3 -2 -0 1 0 -1 -1 -1 -1 -3 -4 -5 -4 -3 -1 -0 -0 -0 -0 0 0 -2 -4
5 4 5 2 0 1 1 5 3 3 3 5 3 6 3 0 -4 -5 -4 -4 -3 -2 -2 -2 -3 -3 -2 -4 -5 -5 -5 -3 -0 0 0 -0 -1 -0 -1 -1 -3 -3 -4 -14
4 5 4 -0 -1 3 5 4 2 3 4 3 4 3 1 -1 -3 -4 -5 -5 -5 -5 -5 -5 -5 -6 -6 -6 -3 -1 -0 -1 -1 -1 -0 -0 -0 0 -1 -2 -7 -14 -15 -14
5 6 4 -1 2 5 3 2 2 2 4 3 2 1 1 0 -1 -3 -4 -5 -5 -4 -5 -6 -7 -7 -4 -1 -1 -1 -1 -0 -0 -0 -0 -0 -0 -3 -10 -14 -15 -14 -15 -19
4 3 -1 -1 2 2 2 1 1 2 4 3 2 1 -0 0 0 -1 -1 -1 -1 -2 -2 -2 -2 -1 -0 -1 -0 -0 -0 -1 -1 -1 -2 -7 -13 -15 -15 -15 -14 -19 -22 -22
3 2 1 1 2 1 0 -0 0 1 4 4 3 0 -1 -0 0 0 0 0 -0 -1 -1 -1 -0 -0 0 -0 -1 -1 -2 -4 -2 -10 -14 -15 -16 -15 -14 -16 -22 -22 -24 -27
3 2 2 2 1 1 1 -0 -0 2 4 4 3 1 -1 -2 -1 0 0 1 1 0 -0 -0 -0 -0 -1 -4 -6 -6 -5 -7 -12 -15 -17 -17 -15 -14 -20 -22 -23 -26 -28 -24
4 1 2 2 1 1 1 -0 -0 1 3 4 3 2 -0 -2 -3 -2 -0 -0 -0 -1 -0 -0 -2 -7 -8 -8 -6 -4 -9 -12 -16 -18 -17 -14 -18 -22 -22 -25 -27 -26 -23 -18
2 2 1 1 2 1 0 -0 -0 -0 1 1 1 1 1 -2 -4 -5 -5 -5 -4 -4 -5 -6 -7 -6 -7 -7 -8 -9 -11 -16 -18 -14 -15 -22 -22 -24 -26 -26 -25 -22 -21 -20
3 3 2 2 2 1 0 -0 -1 -1 -1 -1 -1 -1 -1 -0 -3 -3 -4 -6 -5 -6 -6 -8 -7 -8 -9 -9 -10 -15 -18 -16 -14 -21 -22 -23 -25 -27 -27 -25 -24 -22 -21 -20
2 2 2 2 2 1 -0 -1 -1 -1 -2 -2 -2 -3 -3 -1 -5 -5 -4 -4 -6 -7 -8 -8 -9 -8 -9 -13 -17 -18 -14 -17 -22 -22 -24 -26 -27 -27 -25 -24 -23 -21 -20 -19
2 2 2 1 1 1 -1 -1 -1 -2 -2 -2 -3 -3 -4 -3 -6 -7 -7 -8 -8 -8 -8 -9 -8 -10 -15 -17 -17 -13 -19 -22 -22 -24 -26 -27 -27 -25 -24 -23 -21 -20 -19 -19
2 2 2 1 1 0 -0 -1 -1 -1 -2 -3 -3 -3 -5 -5 -6 -8 -9 -9 -9 -9 -9 -8 -10 -15 -17 -16 -13 -19 -22 -22 -23 -25 -28 -27 -26 -25 -23 -21 -20 -19 -19 -18
1 1 2 2 2 1 -1 -2 -1 -1 -1 -2 -2 -3 -4 -5 -6 -8 -9 -10 -10 -9 -9 -10 -14 -17 -16 -13 -19 -21 -22 -22 -24 -28 -28 -27 -26 -23 -21 -20 -20 -19 -19 -18
2 2 2 2 2 1 0 -1 -1 -2 -1 -2 -2 -4 -5 -6 -7 -9 -9 -10 -9 -8 -9 -13 -17 -16 -13 -17 -21 -21 -22 -24 -27 -28 -27 -26 -23 -21 -20 -19 -19 -19 -19 -19
1 1 1 2 2 1 -0 -0 -1 -1 -2 -2 -3 -4 -5 -7 -8 -8 -8 -8 -7 -7 -10 -14 -17 -14 -14 -20 -21 -21 -23 -25 -29 -28 -27 -24 -22 -20 -20 -19 -19 -19 -19 -18
1 1 1 2 3 4 4 3 2 -0 -2 -2 -2 -3 -4 -6 -7 -7 -7 -7 -7 -9 -13 -17 -15 -13 -18 -21 -21 -22 -23 -28 -29 -28 -25 -22 -21 -20 -20 -19 -19 -19 -19 -18
-0 -0 -0 0 1 1 2 1 -1 -2 -2 -2 -3 -4 -5 -6 -7 -7 -7 -6 -8 -11 -15 -16 -13 -15 -20 -21 -21 -22 -25 -29 -29 -27 -24 -22 -20 -20 -20 -19 -19 -19 -18 -18
-0 -0 -0 -0 -0 -0 -1 -1 -2 -3 -3 -3 -3 -4 -5 -5 -6 -6 -7 -8 -10 -12 -16 -15 -12 -18 -21 -21 -21 -23 -28 -29 -29 -26 -23 -21 -20 -20 -19 -19 -19 -18 -18 -18
-1 -0 -1 -1 -1 -1 -2 -2 -3 -3 -4 -4 -4 -5 -5 -6 -6 -7 -7 -8 -10 -14 -16 -13 -14 -19 -21 -21 -22 -24 -29 -29 -28 -24 -22 -21 -20 -20 -19 -19 -18 -18 -17 -18
-2 -1 -1 -1 -2 -2 -3 -3 -4 -4 -5 -5 -6 -6 -6 -6 -7 -8 -8 -9 -11 -15 -15 -12 -16 -20 -21 -21 -22 -27 -30 -30 -27 -23 -22 -21 -20 -19 -19 -18 -18 -18 -17 -16
-3 -3 -1 -1 -2 -3 -4 -4 -4 -5 -5 -6 -6 -7 -7 -7 -8 -8 -8 -9 -12 -15 -14 -12 -17 -21 -21 -21 -23 -29 -30 -29 -26 -23 -21 -21 -20 -19 -19 -18 -17 -14 -12 -12
-4 -3 -3 -2 -2 -2 -3 -4 -5 -5 -6 -7 -7 -7 -7 -8 -8 -8 -8 -9 -13 -15 -13 -14 -19 -21 -21 -21 -24 -30 -30 -28 -24 -22 -21 -20 -20 -19 -19 -18 -15 -12 -11 -11
Wind_Speed
4 6 3 4 5 7 9 18 6 15 13 22 19 19 19 16 15 18 24 21 21 23 5 9 11 12 9 9 12 18 21 24 22 24 24 22 24 26 28 28 27 26 24 21
5 5 7 6 9 10 13 15 14 23 25 21 26 17 9 13 16 20 23 17 13 5 2 3 5 5 6 5 9 15 18 20 22 24 22 23 24 25 25 25 24 22 22 19
4 3 3 5 11 15 6 6 8 9 11 6 11 7 7 13 15 18 24 7 6 3 3 4 4 4 4 7 11 15 17 20 22 21 22 23 24 24 24 24 24 20 17 14
3 3 1 6 2 6 11 9 9 10 8 8 9 3 6 10 13 14 12 4 3 3 4 5 6 7 8 11 11 13 15 17 18 18 19 22 24 23 23 22 20 16 10 6
1 2 6 2 1 1 5 6 3 4 6 9 11 5 1 13 9 9 8 5 5 5 7 9 9 10 11 12 11 11 12 13 15 15 20 20 22 24 21 16 13 12 8 6
2 0 3 3 1 3 3 4 4 4 4 4 6 2 2 11 6 6 5 5 5 6 7 8 11 10 7 11 10 12 14 15 19 21 23 23 21 19 16 12 9 6 2 2
3 3 6 7 4 5 1 4 3 5 5 0 1 0 2 4 5 5 4 4 3 5 8 10 11 11 15 16 15 17 21 23 23 22 21 17 14 12 11 8 6 5 3 3
3 3 7 3 2 2 3 3 6 6 7 7 7 7 5 5 5 6 6 5 5 6 10 12 14 16 16 18 20 21 24 23 20 17 16 15 12 11 10 7 5 3 3 5
6 5 6 5 5 8 8 8 6 8 10 8 10 8 8 8 9 11 11 11 11 13 13 13 12 15 23 24 22 20 18 19 18 16 15 13 10 9 6 4 1 3 5 7
1 4 12 20 13 7 6 6 6 8 12 12 11 13 12 11 12 15 14 16 18 18 20 21 20 20 19 19 18 17 17 16 14 13 12 10 7 4 1 2 4 6 9 12
5 7 6 6 7 6 5 5 4 7 12 13 12 14 14 15 14 15 17 16 15 16 18 19 18 17 17 17 16 15 14 13 12 9 8 5 2 1 2 5 7 9 9 10
4 4 5 6 5 6 6 5 4 9 13 13 13 14 17 17 17 16 17 17 16 16 16 18 16 16 15 14 11 10 11 10 8 5 3 1 1 3 5 7 8 9 10 10
4 14 11 9 7 8 7 5 5 8 11 14 15 15 17 21 19 18 18 18 18 18 18 18 16 15 13 10 9 8 6 7 5 4 3 1 2 4 5 6 7 8 9 11
14 11 9 11 7 7 6 5 6 7 10 12 15 17 18 20 20 19 20 20 19 19 20 20 18 16 15 13 11 9 8 7 5 4 2 1 3 5 6 7 8 9 10 11
10 7 10 9 8 8 7 7 8 10 12 15 17 19 20 21 21 21 22 23 22 23 22 20 19 17 15 12 10 9 7 6 4 2 1 3 5 7 8 9 10 11 11 11
13 9 7 6 7 9 10 10 11 12 14 16 17 19 20 19 21 22 23 25 27 26 22 20 17 16 14 11 9 7 6 4 1 2 4 5 6 8 9 10 11 12 12 12
13 12 12 11 11 11 13 11 12 12 14 16 17 19 20 22 23 25 27 26 23 21 19 17 16 15 13 10 7 5 3 1 2 4 6 7 8 9 10 11 11 11 12 12
14 17 17 12 13 12 14 14 14 14 16 15 17 20 22 24 26 27 27 26 24 22 19 16 14 13 10 8 6 4 1 3 4 6 7 8 9 10 10 10 10 11 11 12
6 5 9 13 12 11 13 14 15 15 15 18 19 21 22 24 25 27 28 27 25 23 20 18 14 11 9 7 5 3 3 4 6 6 8 9 10 10 10 10 11 11 12 13
7 2 3 3 3 8 13 15 13 13 16 18 20 22 24 25 26 27 26 25 21 18 18 16 13 11 8 7 4 3 4 5 6 7 9 10 10 10 11 11 11 12 12 12
9 7 4 3 4 6 9 11 13 18 19 20 21 23 25 26 26 26 26 25 22 19 17 15 12 10 8 6 4 4 5 6 7 8 10 11 11 11 12 12 12 13 12 12
10 8 5 4 6 8 9 12 15 17 19 21 23 25 26 27 27 26 24 21 21 20 18 15 13 10 8 6 5 5 6 7 8 10 11 12 12 12 12 13 13 13 13 13
11 8 6 5 6 8 11 13 16 18 20 23 26 27 28 27 27 28 27 24 21 19 18 15 13 10 8 7 6 7 7 8 9 11 12 13 13 13 13 13 14 14 13 13
12 9 7 6 7 10 13 14 16 18 19 22 24 25 27 28 27 25 22 20 20 20 18 15 13 11 9 8 7 7 7 9 11 12 12 14 14 14 14 15 14 13 13 13
12 10 8 6 6 9 11 13 15 18 20 22 24 25 25 24 24 23 24 21 21 21 18 15 14 12 10 8 8 8 9 10 12 12 13 14 14 14 14 14 13 12 12 11
11 11 9 8 8 9 10 13 16 18 20 23 25 26 26 26 24 23 22 21 21 20 18 15 14 12 10 9 9 9 10 11 13 14 14 15 14 14 14 13 12 12 13 13
11 12 11 9 9 11 11 13 15 18 21 23 25 27 27 27 26 23 23 22 22 20 18 16 14 12 10 10 9 10 12 13 14 14 15 14 14 14 13 12 12 13 14 14
Wind_Direction
249 250 206 225 221 199 195 230 236 272 278 281 294 306 303 323 330 322 314 308 312 322 306 257 256 260 272 269 249 211 203 200 195 191 186 189 190 191 191 188 186 177 180 178
293 267 221 241 236 226 232 247 255 264 271 277 283 324 345 338 333 323 315 306 317 322 326 276 250 254 247 244 225 209 193 177 176 170 175 181 182 183 176 170 166 168 172 174
273 339 300 283 225 210 203 220 222 241 260 307 318 334 2 341 339 336 337 307 280 228 208 209 209 221 186 164 171 162 157 157 162 171 177 174 168 167 162 159 159 159 160 167
257 357 300 249 254 185 201 239 220 263 290 308 316 173 47 6 349 348 5 33 178 158 143 142 144 140 138 136 147 147 150 152 159 164 159 153 153 151 148 152 150 155 168 174
289 269 279 221 256 137 203 281 185 223 294 306 334 189 62 357 357 2 15 54 99 117 133 142 143 142 141 139 144 147 142 142 144 159 147 151 147 142 143 152 157 156 157 169
349 210 254 256 188 333 113 288 200 233 270 313 343 318 343 343 13 29 49 78 106 137 142 144 141 148 142 121 123 132 137 139 135 134 135 135 139 139 138 130 118 117 99 201
222 276 286 251 271 150 28 254 242 224 246 341 89 77 304 7 38 50 59 72 124 139 135 127 134 150 139 137 138 139 140 132 129 136 138 138 141 134 119 123 117 149 196 264
186 222 267 238 89 223 245 294 277 235 212 135 135 147 107 69 79 81 85 93 107 123 131 139 144 146 134 131 126 128 129 129 128 127 132 133 126 119 123 145 166 203 269 276
197 212 250 261 263 288 296 287 263 229 203 184 155 162 149 124 103 100 91 96 102 101 113 124 134 132 128 122 125 124 128 130 128 116 109 111 119 130 146 154 211 287 288 288
112 256 250 271 263 271 294 286 266 233 202 186 172 166 155 148 135 131 125 114 117 118 116 115 119 123 121 126 129 127 124 122 117 117 120 126 130 122 77 344 320 310 304 301
249 286 282 251 241 264 283 277 245 208 201 193 185 177 170 160 155 144 140 139 139 131 126 123 126 127 126 127 126 129 128 129 131 128 123 118 108 13 321 304 300 303 306 311
231 249 234 262 263 272 273 266 233 204 195 196 197 191 183 172 167 164 151 145 144 141 139 136 137 135 131 133 142 139 138 137 134 132 127 128 263 284 298 314 321 323 326 325
279 322 266 274 258 269 268 256 226 202 208 194 185 188 184 182 179 175 170 163 161 156 152 145 144 141 140 142 152 158 163 152 152 159 173 200 295 316 317 315 313 310 307 310
291 270 249 259 263 250 256 241 206 190 184 190 184 181 182 179 180 183 181 176 172 166 161 159 159 159 157 163 170 169 167 167 169 166 170 298 321 321 320 318 320 324 324 322
357 227 266 279 246 239 232 215 190 181 178 176 183 187 188 184 182 183 181 179 176 169 166 168 167 163 163 166 169 171 169 162 155 154 342 334 332 327 326 329 331 333 335 332
310 305 284 256 250 237 221 203 199 186 185 183 185 188 190 190 185 183 181 177 174 172 171 170 169 165 160 164 172 171 162 155 130 347 335 328 324 329 333 337 339 337 338 339
286 265 265 257 256 242 230 220 209 209 197 193 187 187 187 187 185 181 177 176 176 175 171 172 171 164 163 166 170 168 162 161 325 320 318 326 336 337 339 340 338 338 341 342
282 264 254 268 283 256 222 213 209 211 205 190 187 187 187 186 183 177 174 173 176 174 172 173 173 166 167 169 170 184 214 305 311 318 330 336 336 336 336 337 339 338 343 343
328 297 249 261 267 241 221 211 214 209 200 194 191 186 185 184 180 175 175 178 181 180 176 175 174 174 177 178 187 216 275 304 320 327 331 332 333 331 332 336 338 340 339 334
13 341 303 292 253 207 203 209 220 208 204 199 194 188 183 182 181 181 182 185 187 185 182 178 179 181 188 195 208 250 294 313 318 323 327 328 329 328 333 332 334 334 332 330
18 15 353 303 271 220 217 219 219 215 208 202 199 192 187 183 185 186 185 186 185 187 187 185 186 192 198 209 235 274 298 308 316 322 325 326 327 328 327 328 328 327 326 326
9 3 345 290 268 263 245 233 229 222 218 205 199 196 190 189 188 190 195 195 192 189 191 191 193 198 207 225 251 280 297 306 317 323 324 324 326 325 324 324 321 319 322 322
357 349 337 308 275 261 255 244 236 228 223 214 205 198 198 197 196 193 194 193 201 197 194 196 199 203 215 236 258 280 297 308 314 320 320 322 323 322 323 321 317 318 321 320
351 342 326 305 282 262 252 246 236 232 228 223 213 207 204 199 200 203 204 204 197 200 200 201 204 212 224 242 264 286 295 304 311 316 318 319 320 321 322 319 317 319 321 319
341 336 325 300 291 284 266 254 244 232 225 220 215 212 211 210 214 203 201 204 205 202 203 205 210 219 232 251 270 287 295 302 310 315 314 316 320 318 317 316 317 323 322 316
327 324 315 300 284 272 271 259 248 238 227 218 214 212 210 209 210 210 210 208 207 204 205 211 217 224 237 256 277 288 294 302 310 313 315 318 317 317 315 313 317 320 319 315
297 301 296 288 285 277 267 259 250 244 237 227 222 214 210 208 208 209 213 211 207 207 209 213 219 228 244 262 280 287 295 303 309 311 314 312 313 314 312 313 315 313 313 312
Height
1475 1473 1472 1473 1474 1477 1487 1471 1480 1452 1456 1443 1439 1434 1430 1427 1424 1421 1417 1414 1411 1410 1407 1407 1407 1406 1405 1402 1402 1404 1406 1409 1407 1414 1418 1420 1424 1428 1432 1437 1443 1449 1454 1459
1487 1470 1472 1476 1470 1471 1470 1466 1464 1453 1448 1438 1435 1432 1429 1427 1424 1420 1414 1412 1409 1407 1407 1406 1406 1405 1403 1401 1403 1406 1409 1409 1409 1413 1418 1421 1423 1429 1434 1439 1445 1451 1457 1460
1486 1469 1469 1473 1457 1456 1456 1455 1451 1452 1437 1434 1431 1430 1430 1428 1426 1421 1413 1410 1409 1406 1406 1405 1405 1405 1404 1404 1406 1410 1409 1411 1414 1416 1419 1422 1426 1433 1437 1441 1447 1451 1457 1462
1489 1474 1477 1446 1438 1439 1445 1440 1441 1439 1436 1434 1432 1431 1431 1429 1425 1421 1416 1413 1411 1409 1408 1407 1407 1408 1408 1408 1411 1411 1413 1415 1418 1421 1424 1429 1433 1437 1441 1445 1450 1454 1457 1457
1476 1478 1458 1438 1436 1437 1441 1439 1434 1435 1434 1431 1429 1429 1430 1428 1425 1422 1419 1416 1414 1412 1411 1410 1410 1411 1412 1413 1415 1417 1419 1422 1425 1429 1432 1435 1437 1439 1441 1449 1452 1454 1460 1463
1472 1478 1457 1437 1434 1435 1437 1444 1432 1433 1432 1430 1429 1427 1430 1428 1425 1423 1421 1419 1418 1417 1416 1416 1415 1416 1417 1419 1420 1421 1423 1426 1429 1431 1430 1437 1442 1445 1448 1451 1456 1459 1461 1463
1470 1467 1453 1438 1435 1435 1440 1441 1430 1430 1429 1428 1430 1432 1430 1429 1426 1424 1423 1422 1420 1419 1419 1420 1421 1421 1420 1422 1423 1425 1425 1427 1432 1438 1440 1443 1447 1448 1451 1455 1458 1460 1461 1461
1465 1464 1464 1432 1434 1437 1432 1428 1428 1427 1428 1427 1428 1430 1430 1429 1428 1426 1425 1424 1423 1423 1423 1424 1424 1426 1426 1427 1429 1431 1434 1437 1440 1443 1446 1450 1452 1454 1456 1458 1460 1461 1460 1461
1451 1446 1433 1431 1430 1430 1429 1428 1426 1425 1426 1427 1427 1429 1431 1431 1430 1429 1428 1428 1428 1427 1427 1428 1429 1431 1432 1434 1436 1439 1441 1444 1446 1448 1451 1454 1456 1458 1459 1460 1460 1460 1460 1460
1443 1430 1430 1428 1428 1428 1427 1426 1425 1424 1425 1426 1427 1428 1431 1432 1432 1431 1432 1432 1432 1433 1433 1434 1436 1438 1440 1441 1443 1445 1447 1450 1452 1453 1455 1457 1459 1459 1459 1459 1459 1459 1459 1457
1435 1429 1428 1426 1426 1426 1425 1424 1423 1423 1424 1426 1428 1428 1430 1432 1433 1434 1434 1435 1436 1437 1438 1440 1442 1444 1445 1447 1448 1450 1452 1453 1455 1457 1458 1460 1460 1460 1459 1459 1459 1458 1456 1455
1431 1425 1426 1423 1423 1422 1422 1422 1421 1421 1422 1424 1426 1427 1429 1432 1434 1435 1437 1438 1440 1441 1442 1444 1446 1448 1449 1451 1454 1455 1456 1457 1458 1459 1460 1460 1460 1460 1459 1458 1456 1455 1453 1452
1426 1424 1423 1422 1421 1421 1420 1420 1420 1420 1421 1422 1424 1426 1429 1431 1434 1436 1438 1440 1442 1444 1446 1447 1449 1451 1453 1455 1457 1458 1459 1460 1460 1461 1461 1460 1459 1458 1457 1456 1454 1453 1452 1450
1420 1420 1420 1419 1419 1419 1419 1419 1419 1419 1420 1422 1423 1426 1428 1430 1433 1437 1439 1442 1444 1446 1448 1450 1452 1454 1456 1458 1459 1461 1461 1462 1462 1462 1461 1460 1459 1458 1456 1455 1453 1452 1450 1447
1419 1418 1418 1417 1417 1417 1417 1417 1417 1419 1420 1421 1423 1425 1428 1430 1433 1437 1440 1442 1445 1448 1450 1453 1455 1456 1458 1460 1461 1462 1462 1462 1462 1461 1460 1459 1458 1456 1455 1452 1450 1448 1446 1444
1420 1418 1417 1416 1415 1415 1415 1416 1417 1418 1420 1421 1423 1426 1429 1432 1435 1437 1440 1443 1446 1448 1451 1454 1456 1458 1459 1461 1462 1462 1462 1462 1461 1460 1459 1458 1456 1455 1452 1450 1447 1445 1443 1440
1418 1416 1415 1414 1414 1413 1413 1415 1416 1418 1419 1421 1422 1425 1428 1431 1434 1437 1441 1445 1449 1451 1453 1455 1457 1458 1460 1461 1462 1462 1462 1461 1461 1460 1458 1456 1454 1452 1449 1447 1445 1442 1440 1437
1413 1412 1412 1412 1411 1410 1411 1413 1415 1416 1418 1420 1422 1424 1427 1430 1433 1437 1441 1445 1449 1452 1454 1456 1458 1459 1460 1460 1461 1461 1461 1461 1460 1458 1456 1454 1452 1449 1447 1445 1443 1440 1437 1435
1410 1408 1408 1408 1407 1407 1409 1411 1414 1416 1418 1420 1421 1424 1427 1431 1435 1438 1442 1445 1448 1450 1452 1455 1457 1458 1459 1460 1460 1461 1460 1459 1458 1456 1454 1452 1450 1447 1445 1442 1440 1437 1435 1433
1408 1407 1406 1405 1405 1406 1408 1410 1413 1415 1417 1419 1422 1424 1427 1431 1435 1438 1442 1444 1448 1450 1452 1454 1456 1457 1458 1459 1459 1459 1458 1457 1455 1453 1451 1449 1447 1445 1442 1440 1437 1435 1432 1430
1407 1406 1405 1405 1405 1406 1407 1409 1411 1413 1415 1418 1421 1423 1426 1430 1434 1437 1440 1443 1446 1449 1451 1453 1454 1456 1457 1457 1457 1457 1456 1455 1453 1451 1449 1447 1445 1442 1440 1437 1435 1432 1430 1428
1407 1406 1406 1406 1406 1407 1408 1409 1411 1412 1414 1417 1420 1423 1426 1429 1432 1436 1440 1443 1444 1446 1449 1451 1453 1454 1455 1455 1455 1455 1454 1452 1450 1449 1446 1444 1442 1439 1437 1434 1432 1430 1427 1425
1408 1407 1406 1406 1406 1406 1407 1408 1409 1411 1412 1414 1417 1420 1423 1427 1430 1433 1435 1440 1443 1445 1447 1449 1451 1452 1453 1453 1453 1452 1451 1449 1447 1445 1443 1441 1439 1437 1434 1432 1429 1427 1424 1422
1408 1407 1406 1405 1405 1405 1406 1406 1407 1409 1411 1414 1416 1420 1422 1424 1428 1432 1436 1439 1441 1443 1446 1448 1449 1450 1451 1451 1450 1449 1447 1446 1444 1441 1439 1437 1435 1433 1431 1428 1426 1423 1421 1420
1409 1407 1406 1405 1404 1405 1404 1405 1405 1406 1408 1411 1414 1417 1421 1424 1428 1430 1432 1435 1438 1440 1443 1445 1446 1448 1448 1448 1447 1446 1444 1442 1440 1438 1437 1434 1432 1430 1428 1425 1423 1421 1419 1418
1407 1406 1404 1403 1402 1402 1402 1403 1403 1404 1405 1407 1410 1413 1417 1421 1425 1428 1431 1433 1435 1438 1440 1442 1444 1445 1445 1445 1444 1443 1441 1439 1437 1435 1433 1431 1429 1427 1425 1422 1420 1418 1417 1416
1405 1403 1401 1401 1400 1399 1399 1400 1400 1402 1403 1405 1408 1411 1414 1417 1421 1424 1427 1430 1432 1435 1437 1439 1441 1442 1442 1442 1440 1439 1438 1436 1434 1432 1430 1428 1426 1424 1421 1419 1417 1416 1414 1412